Regional Weather Roundup
Issued by NWS

Home | Current Version | Previous Version | Text Only | Print | Product List | Glossary On
Versions: 1 2 3 4 5 6 7 8 9 10 11 12 13 14 15 16 17 18 19 20 21 22 23 24 25 26 27 28 29 30 31 32 33 34 35 36 37 38 39 40 41 42 43 44 45 46 47 48 49 50
000
ASUS43 KMPX 131201
RWRMN
WEATHER ROUNDUP FOR MINNESOTA
NATIONAL WEATHER SERVICE TWIN CITIES/CHANHASSEN MN
600 AM CST SAT FEB 13 2016


NOTE: "FAIR" INDICATES FEW OR NO CLOUDS BELOW 12,000 FEET WITH NO
SIGNIFICANT WEATHER AND/OR OBSTRUCTIONS TO VISIBILITY. N/A MEANS
CURRENT SKY AND/OR WEATHER CONDITIONS ARE NOT AVAILABLE.

MNZ060>063-068>070-131300-
   Twin Cities Metro

CITY           SKY/WX    TMP DP  RH WIND       PRES   REMARKS
TWIN CITIES    PTCLDY    -6 -13  71 NW3       30.63F
6HR MIN TEMP:  -6; 6HR MAX TEMP:   0;

ST PAUL        CLOUDY    -6 -14  68 NW6       30.66S WCI -19
CRYSTAL        PTCLDY    -7 -15  68 NW3       30.62S
BLAINE         PTCLDY    -6 -11  77 NW3       30.61F
LAKEVILLE      PTCLDY    -9 -15  77 W3        30.62R
EDEN PRAIRIE   CLOUDY    -8 -15  71 CALM      30.62R
6HR MIN TEMP:  -8; 6HR MAX TEMP:   0;

SOUTH ST PAUL  CLOUDY    -4 -13  64 CALM      30.64S
LAKE ELMO      FAIR      -9 -15  77 CALM      30.62F
$$
MNZ001>005-007-008-013>017-022>024-027-028-131300-
   Northwest Minnesota

CITY           SKY/WX    TMP DP  RH WIND       PRES   REMARKS
BEMIDJI        CLOUDY   -25 -30  77 CALM      30.53F
HALLOCK        CLOUDY   -15 -20  76 SE8       30.56F WCI -32
ROSEAU         CLOUDY   -22 -27  76 CALM      30.56F
WARROAD        PTCLDY   -24 -29  76 SW5       30.55S WCI -38
THIEF RVR FALL CLOUDY   -17 N/A N/A SE5       30.55F WCI -29
CROOKSTON      CLOUDY   -11 -17  77 SE7       30.60S WCI -26
FOSSTON          N/A    -27 -35  68 CALM      30.55S
DETROIT LAKES  CLOUDY   -15 -20  76 CALM      30.54S
MOORHEAD       CLOUDY    -8 -13  77 S3        30.61R
PARK RAPIDS    CLOUDY   -22 -29  70 W5        30.53S WCI -36
MAHNOMEN       FAIR     -21 -26  75 SE5       30.55F WCI -34
$$
MNZ006-009>011-018-025>026-131300-
   North Central Minnesota

CITY           SKY/WX    TMP DP  RH WIND       PRES   REMARKS
BAUDETTE       CLOUDY   -23 -30  70 CALM      30.53F
FLAG ISLAND    CLOUDY   -24 -27  83 CALM      30.55S
INTL FALLS     CLOUDY   -22 -27  77 CALM      30.54F
6HR MIN TEMP: -24; 6HR MAX TEMP: -15;

WASKISH        CLOUDY   -24 -27  83 CALM      30.54F
LONGVILLE      CLOUDY   -24 -29  76 CALM      30.55F
GRAND RAPIDS   CLOUDY   -20 -27  69 CALM      30.52F
CRANE LAKE     CLOUDY   -27 -35  68 CALM      30.57S
ORR            CLOUDY   -24 -29  76 CALM      30.49F
COOK           CLOUDY   -24 -27  83 CALM      30.52F
WALKER         FAIR     -23 -28  76 CALM      30.55F
$$
MNZ012-019>021-037-131300-
   Northeast Minnesota

CITY           SKY/WX    TMP DP  RH WIND       PRES   REMARKS
DULUTH         CLOUDY   -16 -22  74 NW9       30.49S WCI -35
6HR MIN TEMP: -16; 6HR MAX TEMP:  -9;

ELY            CLOUDY   -26 -29  83 CALM      30.50S
HIBBING        CLOUDY   -20 -24  82 NW3       30.52F
EVELETH        FLURRIES -17 -24  70 W5        30.52F WCI -29
DULUTH HARBOR  CLOUDY    -8 -18  59 NW9       30.63S WCI -25
TWO HARBORS    CLOUDY   -11 -20  64 W3        30.51S
SILVER BAY     CLEAR    -11 -20  64 CALM      30.49R
GRAND MARAIS     N/A    -10 -19  64 SW6       30.55S WCI -23
G MARAIS ARPRT CLOUDY   -18 -26  69 NW10G16   30.37S WCI -39
$$
MNZ029>031-032-039>041-046>048-054>057-064-131300-
   West Central Minnesota

CITY           SKY/WX    TMP DP  RH WIND       PRES   REMARKS
FERGUS FALLS   CLOUDY    -9 -15  77 CALM      30.62F
WHEATON        CLOUDY    -6  -9  84 SE5       30.61F WCI -17
MORRIS         CLOUDY    -8 -11  84 CALM      30.57F
ALEXANDRIA     CLOUDY   -14 -20  74 CALM      30.55F
ELBOW LAKE     FAIR      -8 -13  79 CALM      30.57F
WADENA         CLOUDY   -17 -22  76 CALM      30.55S
GLENWOOD       CLOUDY   -11 -17  77 CALM      30.57R
APPLETON       CLOUDY    -8 -11  84 CALM      30.61F
BENSON         CLOUDY    -8 -11  84 CALM      30.59S
ORTONVILLE     CLOUDY    -6 -11  77 CALM      30.58F
MADISON        CLOUDY    -2  -9  71 CALM      30.59F
WILLMAR        FAIR      -6 -11  77 CALM      30.62R
$$
MNZ033>034-036-042>043-049>051-058-059-131300-
   Central Minnesota

CITY           SKY/WX    TMP DP  RH WIND       PRES   REMARKS
ST CLOUD       PTCLDY   -12 -18  74 CALM      30.60F
6HR MIN TEMP: -13; 6HR MAX TEMP:  -6;

SAUK CENTRE    FAIR     -14 -18  82 CALM      30.58R
PAYNESVILLE    CLOUDY   -10 -16  77 CALM      30.60S
AITKIN         PTCLDY   -20 -29  63 CALM      30.55F
PINE RIVER     CLOUDY   -24 -27  83 CALM      30.58F
BRAINERD       PTCLDY   -21 -26  77 CALM      30.57F
STAPLES        CLOUDY   -18 -24  76 CALM      30.56F
LONG PRAIRIE   FAIR     -15 -18  84 CALM      30.56S
LITTLE FALLS   PTCLDY   -15 -22  70 CALM      30.60S
LITCHFIELD     CLOUDY    -9 -13  84 CALM      30.61S
BUFFALO        PTCLDY   -10 -15  76 CALM      30.63S
MAPLE LAKE     PTCLDY    -9 -14  80 CALM      30.62S
$$
MNZ037-044-045-052-053-131300-
   East Central Minnesota

CITY           SKY/WX    TMP DP  RH WIND       PRES   REMARKS
PRINCETON      PTCLDY   -11 -17  77 CALM      30.60F
MORA           PTCLDY    -9 -17  70 CALM      30.61S
CAMBRIDGE      PTCLDY   -11 -18  70 CALM      30.60S
MOOSE LAKE     PTCLDY   -13 -20  70 CALM      30.56F
HINCKLEY       FAIR     -13 -17  84 CALM      30.60S
CLOQUET        CLOUDY   -15 -22  70 NW8       30.52S WCI -32
MCGREGOR       PTCLDY   -15 -18  84 W3        30.57F
$$
MNZ071>073-080-081-089-090-097-098-131300-
   Southwest Minnesota

CITY           SKY/WX    TMP DP  RH WIND       PRES   REMARKS
MONTEVIDEO     CLOUDY    -8 -11  84 CALM      30.61F
GRANITE FALLS  CLOUDY    -3  -8  80 CALM      30.62F
CANBY          CLOUDY     1  -5  76 E6        30.58F WCI -11
MARSHALL       CLOUDY    -3 -10  72 NE6       30.58F WCI -15
REDWOOD FALLS  CLOUDY    -6 -11  79 W3        30.62S
OLIVIA         CLOUDY    -2  -9  71 CALM      30.61S
PIPESTONE      CLOUDY     0 -15  50 E8        30.50F WCI -15
WINDOM         CLOUDY    -6  -9  84 CALM      30.57S
WORTHINGTON    CLOUDY    -4 -11  71 NE6       30.55S WCI -16
JACKSON        CLOUDY    -4  -9  77 N6        30.55F WCI -16
TRACY          CLOUDY    -2  -8  78 NE3       30.57F
SLAYTON        CLOUDY    -4  -9  81 CALM      30.54S
$$
MNZ065>067-074>077-082>085-091>093-131300-
   South Central Minnesota

CITY           SKY/WX    TMP DP  RH WIND       PRES   REMARKS
MANKATO        CLOUDY    -6 -11  77 NW3       30.60F
NEW ULM        CLOUDY    -8 -11  84 CALM      30.62S
ST JAMES       CLOUDY    -6  -9  84 CALM      30.62F
FAIRMONT       CLOUDY    -6 -11  77 NW5       30.58F WCI -17
GLENCOE        CLOUDY    -7 -12  77 CALM      30.61S
FARIBAULT      PTCLDY    -9 -15  77 SW1       30.60S
OWATONNA       CLOUDY    -8 -15  71 CALM      30.59S
WASECA         CLOUDY    -8 -13  77 CALM      30.61F
ALBERT LEA     CLOUDY    -6 -11  77 CALM      30.57F
$$
MNZ078>079-086>088-094>096-131300-
   Southeast Minnesota

CITY           SKY/WX    TMP DP  RH WIND       PRES   REMARKS
ROCHESTER      PTCLDY   -10 -16  74 NW7       30.56S WCI -25
6HR MIN TEMP: -10; 6HR MAX TEMP:  -3;

RED WING       CLOUDY    -9 -17  70 NW1       30.63S
STANTON        CLOUDY   -11 -17  75 CALM      30.61R
DODGE CENTER   CLOUDY    -9 -17  70 N3        30.56S
WINONA         CLOUDY     0  -9  65 NW3       30.65R
AUSTIN         CLOUDY    -8 -13  77 NW3       30.58R
PRESTON        PTCLDY    -9 -17  70 NW5       30.57R WCI -21
$$
ABBREVIATIONS USED IN REMARKS
   TC - TEMPERATURES IN CELSIUS
  WCI - WIND CHILL INDEX
   HX - HEAT INDEX
  VSB - VISIBILITY
$$



USA.gov is the U.S. government's official web portal to all federal, state and local government web resources and services.